Miscellaneous Local Product
Issued by NWS Hastings, NE

Home | Current Version | Previous Version | Graphics & Text | Print | Product List | Glossary On
Versions: 1 2 3 4 5 6 7 8 9 10 11 12 13 14 15 16 17 18 19 20 21 22 23 24 25 26 27 28 29 30 31 32 33 34 35 36 37 38 39 40 41 42 43 44 45 46 47 48 49 50
000
AXUS43 KGID 210602
MISGRI

GID CWA HOURLY WEATHER ROUNDUP
NATIONAL WEATHER SERVICE HASTINGS NE
100 AM CDT THU MAY 21 2015

NOTE: "FAIR" INDICATES FEW OR NO CLOUDS BELOW 12,000 FEET WITH NO
SIGNIFICANT WEATHER AND/OR OBSTRUCTIONS TO VISIBILITY.

...SOUTH CENTRAL NEBRASKA...

CITY           SKY/WX    TMP DP  RH WIND       PRES   REMARKS
GRAND ISLAND   CLEAR     40  37  89 W7        30.30S
HASTINGS       CLEAR     40  38  93 W3        30.30S
KEARNEY        CLEAR     43  37  81 W5        30.31S
ORD            CLEAR     38  35  89 CALM      30.29S
YORK           CLEAR     41  41 100 W7        30.29S
AURORA         CLEAR     39  38  99 W3        30.30R
LEXINGTON      CLEAR     40  38  93 W5        30.32S
HOLDREGE       CLEAR     38  36  92 W6        30.31S WCI  33
HEBRON         MOCLDY    45  41  87 W3        30.29S

...NEBRASKA PANHANDLE...

CITY           SKY/WX    TMP DP  RH WIND       PRES   REMARKS
CHADRON        CLEAR     33  31  92 SW5       30.31S WCI  29
ALLIANCE       PTCLDY    34  30  85 S3        30.30F
SCOTTSBLUFF    CLOUDY    42  36  79 E5        30.31S
SIDNEY         CLOUDY    42  36  79 NE6       30.32R

...WESTERN AND NORTH CENTRAL NEBRASKA...

CITY           SKY/WX    TMP DP  RH WIND       PRES   REMARKS
VALENTINE      CLEAR     37  34  89 W8        30.29S WCI  31
AINSWORTH      CLEAR     40  37  87 W10       30.29S WCI  34
ONEILL         CLEAR     42  38  87 W9        30.27S
BROKEN BOW     CLEAR     38  35  89 CALM      30.30S
IMPERIAL       CLOUDY    45  39  79 E5        30.32F
NORTH PLATTE   PTCLDY    41  37  86 SW3       30.32S
MCCOOK         MOCLDY    44  41  89 N3        30.33S

...EASTERN NEBRASKA...

CITY           SKY/WX    TMP DP  RH WIND       PRES   REMARKS
NORFOLK        CLEAR     40  37  89 W6        30.26S
SO SIOUX CITY  CLEAR     44  39  82 SW10      30.24F
TEKAMAH        CLEAR     42  39  89 SW7       30.26S
COLUMBUS       CLEAR     39  32  75 CALM      30.30S
ALBION         CLEAR     39  35  85 NW3       30.28S
OMAHA EPPLEY   CLEAR     43  41  93 CALM      30.26F
MILLARD        CLEAR     41  40  95 CALM      30.26F
LINCOLN        CLEAR     44  40  85 NW5       30.30R
NEBRASKA CITY  CLEAR     44  42  93 N6        30.26S
BEATRICE       CLEAR     40  39  96 NW7       30.28R WCI  35
FALLS CITY     CLOUDY    47  45  93 W3        30.25S

...NORTHERN KANSAS...

CITY           SKY/WX    TMP DP  RH WIND       PRES   REMARKS
GOODLAND       CLOUDY    46  36  68 CALM      30.33F
HILL CITY      CLOUDY    47  43  86 CALM      30.33S
NORTON         CLOUDY    45  39  81 CALM      30.32F
PHILLIPSBURG   CLEAR     43  43 100 W6        30.34S
SMITH CENTER   CLEAR     39  37  93 W5        30.34R
HAYS           CLOUDY    45  36  70 N3        30.32S
RUSSELL        CLEAR     40  40 100 NW5       30.31S
CONCORDIA      CLOUDY    45  42  89 NW5       30.30S
SALINA         MOCLDY    46  43  89 NW5       30.30S
TOPEKA         CLOUDY    49  46  90 NW6       30.26S



USA.gov is the U.S. government's official web portal to all federal, state and local government web resources and services.